Regional Weather Roundup
Issued by NWS Newport/Morehead, NC

Home | Current Version | Previous Version | Text Only | Print | Product List | Glossary On
Versions: 1 2 3 4 5 6 7 8 9 10 11 12 13 14 15 16 17 18 19 20 21 22 23 24 25 26 27 28 29 30 31 32 33 34 35 36 37 38 39 40 41 42 43 44 45 46 47 48 49 50
359
ASUS42 KMHX 181025
RWRMHX
WEATHER ROUNDUP FOR EASTERN NORTH CAROLINA
NATIONAL WEATHER SERVICE NEWPORT/MOREHEAD CITY NC
500 AM EST SAT NOV 18 2017

NOTE: "FAIR" INDICATES FEW OR NO CLOUDS BELOW 12,000 FEET
WITH NO SIGNIFICANT WEATHER AND/OR OBSTRUCTIONS TO VISIBILITY

NCZ015>017-031-032-045>047-102-103-181100-
NORTH COAST

CITY           SKY/WX    TMP DP  RH WIND       PRES   REMARKS
EDENTON        CLEAR     43  38  84 CALM      30.10F
ELIZABETH CITY CLOUDY    40  39  97 S5        30.09F
KITTY HAWK     MOSUNNY   45  37  73 CALM      30.09S
MANTEO         PTCLDY    46  39  74 W7        30.11S

$$

NCZ045>047-081-094-103-104-181100-
CENTRAL COAST

CITY           SKY/WX    TMP DP  RH WIND       PRES   REMARKS
FRISCO         PTCLDY    39  38  96 CALM      30.10F

$$

NCZ095-097-098-100-101-181100-
SOUTHERN COAST

CITY           SKY/WX    TMP DP  RH WIND       PRES   REMARKS
BEAUFORT       CLEAR     40  38  93 NE5       30.10F
CEDAR ISLAND   NOT AVBL
JACKSONVILLE   CLEAR     35  35 100 CALM      30.10
PINEY ISLAND   NOT AVBL
WILMINGTON     CLEAR     37  36  96 CALM      30.10F


$$

NCZ011>013-027>030-043-044-078>080-089-090>093-098-181100-
COASTAL PLAIN

CITY           SKY/WX    TMP DP  RH WIND       PRES   REMARKS
AHOSKIE        CLEAR     32  32  99 S3        30.09F
CLINTON        CLOUDY    34  34 100 CALM      30.10S
ELIZABETHTOWN  NOT AVBL
GOLDSBORO      CLOUDY    32  30  91 CALM      30.07F
GREENVILLE     CLEAR     32  32 100 CALM      30.11S
HAVELOCK       NOT AVBL
KENANSVILLE    PTCLDY    30  28  93 CALM      30.10F FOG
KINSTON        CLOUDY    31  31  97 CALM      30.10F
NEW BERN       CLOUDY    33  33 100 CALM      30.11F
RICHLANDS      CLEAR     30  29  96 CALM      30.11F
ROCKY MOUNT    CLOUDY    33  33 100 CALM      30.08F
WASHINGTON     CLEAR     32  31  94 CALM      30.10F
WHITEVILLE     CLEAR     34  33  96 CALM      30.08F

$$

AMZ130-135-150-152-154-156-158-170-250-252-270-ANZ085-086-088-633-658-670-181100-
MARINE OBSERVATIONS

STATION/POSITION TIME  TEMP    WIND        PRES    WAVE   SWELL
                       AIR SEA DIR/SP/G            HT/PER HT/PER
                 (UTC) (F)     (DEG/KT/KT) (MB)    (FT/S) (FT/S)
CHESAPEAKE LIGHT NOT AVBL
64 E VA BEACH    0950   54 60  220/ 12/ 14 1018.6    3/11   3/11
DUCK             NOT AVBL
2 E DUCK         1000      58                N/A     2/11   2/11
OREGON INLET     NOT AVBL
13E OREGON INLT  0948      60                N/A     3/11   2/11
HATTERAS CG      NOT AVBL
DIAMOND BUOY     1010   55     330/  4/  6 1019.4
CAPE LOOKOUT     1000   50     360/  6/  6 1019.3
BEAUFORT LAB     NOT AVBL
30 SE NEW RVR IN 1008   58 70   50/  6/  8 1019.0
30 SE NEW RVR IN 1000      70                N/A     3/ 9   2/12
27 SE WRIGHTSVLE 1008   60 67   30/  4/  8 1018.7
5 SE WRIGHTSVLE  1008   54 64  340/  6/ 10 1019.0
225 S CAPE HAT   0950   68 77  140/  6/ 10 1018.0    6/ 9   7/ 9
41 SE CHARLESTON 1010   67      80/  8/ 10 1017.5

$$




USA.gov is the U.S. government's official web portal to all federal, state and local government web resources and services.